Year,Month,Day,Hour,Minute,Value (Times are PST for temperature in C)
2015,12,12,00,00,6.10
2015,12,12,00,01,6.00
2015,12,12,00,02,6.00
2015,12,12,00,03,6.00
2015,12,12,00,04,6.00
2015,12,12,00,05,6.10
2015,12,12,00,06,6.10
2015,12,12,00,07,6.10
2015,12,12,00,08,6.10
2015,12,12,00,09,6.10
2015,12,12,00,10,6.10
2015,12,12,00,11,6.20
2015,12,12,00,12,6.20
2015,12,12,00,13,6.20
2015,12,12,00,14,6.20
2015,12,12,00,15,6.20
2015,12,12,00,16,6.20
2015,12,12,00,17,6.20
2015,12,12,00,18,6.20
2015,12,12,00,19,6.20
2015,12,12,00,20,6.30
2015,12,12,00,21,6.30
2015,12,12,00,22,6.30
2015,12,12,00,23,6.30
2015,12,12,00,24,6.30
2015,12,12,00,25,6.30
2015,12,12,00,26,6.40
2015,12,12,00,27,6.40
2015,12,12,00,28,6.40
2015,12,12,00,29,6.40
2015,12,12,00,30,6.50
2015,12,12,00,31,6.50
2015,12,12,00,32,6.50
2015,12,12,00,33,6.60
2015,12,12,00,34,6.60
2015,12,12,00,35,6.60
2015,12,12,00,36,6.60
2015,12,12,00,37,6.60
2015,12,12,00,38,6.60
2015,12,12,00,39,6.60
2015,12,12,00,40,6.70
2015,12,12,00,41,6.70
2015,12,12,00,42,6.70
2015,12,12,00,43,6.70
2015,12,12,00,44,6.70
2015,12,12,00,45,6.70
2015,12,12,00,46,6.70
2015,12,12,00,47,6.70
2015,12,12,00,48,6.70
2015,12,12,00,49,6.70
2015,12,12,00,50,6.80
2015,12,12,00,51,6.80
2015,12,12,00,52,6.80
2015,12,12,00,53,6.80
2015,12,12,00,54,6.80
2015,12,12,00,55,6.80
2015,12,12,00,56,6.80
2015,12,12,00,57,6.80
2015,12,12,00,58,6.80
2015,12,12,00,59,6.80
2015,12,12,01,00,6.80
2015,12,12,01,01,6.80
2015,12,12,01,02,6.90
2015,12,12,01,03,6.90
2015,12,12,01,04,6.90
2015,12,12,01,05,6.90
2015,12,12,01,06,6.90
2015,12,12,01,07,6.90
2015,12,12,01,08,6.90
2015,12,12,01,09,6.90
2015,12,12,01,10,6.90
2015,12,12,01,11,6.90
2015,12,12,01,12,6.90
2015,12,12,01,13,6.90
2015,12,12,01,14,6.90
2015,12,12,01,15,6.90
2015,12,12,01,16,6.90
2015,12,12,01,17,6.90
2015,12,12,01,18,6.90
2015,12,12,01,19,6.90
2015,12,12,01,20,6.90
2015,12,12,01,21,6.90
2015,12,12,01,22,6.90
2015,12,12,01,23,6.90
2015,12,12,01,24,6.90
2015,12,12,01,25,6.90
2015,12,12,01,26,6.90
2015,12,12,01,27,6.90
2015,12,12,01,28,6.90
2015,12,12,01,29,6.90
2015,12,12,01,30,6.90
2015,12,12,01,31,6.90
2015,12,12,01,32,7.00
2015,12,12,01,33,7.00
2015,12,12,01,34,7.00
2015,12,12,01,35,7.00
2015,12,12,01,36,7.00
2015,12,12,01,37,7.00
2015,12,12,01,38,7.00
2015,12,12,01,39,7.00
2015,12,12,01,40,7.00
2015,12,12,01,41,7.00
2015,12,12,01,42,7.00
2015,12,12,01,43,7.00
2015,12,12,01,44,7.00
2015,12,12,01,45,7.00
2015,12,12,01,46,7.00
2015,12,12,01,47,7.00
2015,12,12,01,48,7.00
2015,12,12,01,49,6.90
2015,12,12,01,50,6.90
2015,12,12,01,51,7.00
2015,12,12,01,52,7.00
2015,12,12,01,53,7.00
2015,12,12,01,54,7.00
2015,12,12,01,55,7.00
2015,12,12,01,56,7.00
2015,12,12,01,57,7.00
2015,12,12,01,58,7.00
2015,12,12,01,59,6.90
2015,12,12,02,00,6.90
2015,12,12,02,01,6.90
2015,12,12,02,02,6.90
2015,12,12,02,03,6.90
2015,12,12,02,04,6.90
2015,12,12,02,05,6.90
2015,12,12,02,06,6.80
2015,12,12,02,07,6.80
2015,12,12,02,08,6.80
2015,12,12,02,09,6.80
2015,12,12,02,10,6.80
2015,12,12,02,11,6.80
2015,12,12,02,12,6.80
2015,12,12,02,13,6.80
2015,12,12,02,14,6.80
2015,12,12,02,15,6.80
2015,12,12,02,16,6.80
2015,12,12,02,17,6.80
2015,12,12,02,18,6.70
2015,12,12,02,19,6.70
2015,12,12,02,20,6.70
2015,12,12,02,21,6.70
2015,12,12,02,22,6.70
2015,12,12,02,23,6.70
2015,12,12,02,24,6.70
2015,12,12,02,25,6.70
2015,12,12,02,26,6.70
2015,12,12,02,27,6.70
2015,12,12,02,28,6.70
2015,12,12,02,29,6.70
2015,12,12,02,30,6.70
2015,12,12,02,31,6.70
2015,12,12,02,32,6.70
2015,12,12,02,33,6.70
2015,12,12,02,34,6.70
2015,12,12,02,35,6.70
2015,12,12,02,36,6.70
2015,12,12,02,37,6.70
2015,12,12,02,38,6.70
2015,12,12,02,39,6.70
2015,12,12,02,40,6.70
2015,12,12,02,41,6.70
2015,12,12,02,42,6.80
2015,12,12,02,43,6.80
2015,12,12,02,44,6.80
2015,12,12,02,45,6.80
2015,12,12,02,46,6.80
2015,12,12,02,47,6.80
2015,12,12,02,48,6.80
2015,12,12,02,49,6.80
2015,12,12,02,50,6.80
2015,12,12,02,51,6.80
2015,12,12,02,52,6.80
2015,12,12,02,53,6.80
2015,12,12,02,54,6.80
2015,12,12,02,55,6.80
2015,12,12,02,56,6.80
2015,12,12,02,57,6.80
2015,12,12,02,58,6.80
2015,12,12,02,59,6.80
2015,12,12,03,00,6.80
2015,12,12,03,01,6.80
2015,12,12,03,02,6.80
2015,12,12,05,37,6.00
2015,12,12,05,38,6.00
2015,12,12,05,39,5.90
2015,12,12,05,40,5.90
2015,12,12,05,41,5.90
2015,12,12,05,42,5.90
2015,12,12,05,48,5.70
2015,12,12,05,49,5.70
2015,12,12,05,50,5.70
2015,12,12,05,51,5.70
2015,12,12,05,52,5.70
2015,12,12,05,53,5.80
2015,12,12,05,54,5.80
2015,12,12,05,55,5.80
2015,12,12,05,56,5.80
2015,12,12,05,57,5.80
2015,12,12,05,58,5.80
2015,12,12,05,59,5.80
2015,12,12,06,00,5.80
2015,12,12,06,01,5.70
2015,12,12,06,02,5.70
2015,12,12,06,03,5.60
2015,12,12,06,04,5.60
2015,12,12,11,03,6.80
2015,12,12,11,04,6.80
2015,12,12,11,05,6.80
2015,12,12,11,06,6.80
2015,12,12,11,07,6.80
2015,12,12,11,08,6.80
2015,12,12,11,09,6.80
2015,12,12,11,10,6.80
2015,12,12,11,11,6.80
2015,12,12,11,12,6.80
2015,12,12,11,13,6.80
2015,12,12,11,14,6.80
2015,12,12,11,15,6.80
2015,12,12,11,16,6.80
2015,12,12,11,17,6.80
2015,12,12,11,18,6.80
2015,12,12,11,19,6.70
2015,12,12,11,20,6.70
2015,12,12,11,21,6.70
2015,12,12,11,22,6.70
2015,12,12,11,23,6.70
2015,12,12,11,24,6.70
2015,12,12,11,25,6.70
2015,12,12,11,26,6.70
2015,12,12,11,27,6.70
2015,12,12,11,28,6.70
2015,12,12,11,29,6.70
2015,12,12,11,30,6.70
2015,12,12,11,31,6.70
2015,12,12,11,32,6.70
2015,12,12,11,33,6.70
2015,12,12,11,34,6.70
2015,12,12,11,35,6.70
2015,12,12,11,36,6.70
2015,12,12,11,37,6.70
2015,12,12,11,38,6.70
2015,12,12,11,39,6.70
2015,12,12,11,40,6.70
2015,12,12,11,41,6.60
2015,12,12,11,42,6.60
2015,12,12,11,43,6.60
2015,12,12,11,44,6.60
2015,12,12,11,45,6.60
2015,12,12,11,46,6.60
2015,12,12,11,47,6.60
2015,12,12,11,48,6.50
2015,12,12,11,49,6.50
2015,12,12,11,50,6.50
2015,12,12,11,51,6.50
2015,12,12,11,52,6.50
2015,12,12,11,53,6.50
2015,12,12,11,54,6.50
2015,12,12,11,55,6.50
2015,12,12,11,56,6.50
2015,12,12,11,57,6.50
2015,12,12,11,58,6.50
2015,12,12,11,59,6.50
2015,12,12,12,00,6.50
2015,12,12,12,01,6.50
2015,12,12,12,02,6.50
2015,12,12,12,03,6.60
2015,12,12,12,04,6.60
2015,12,12,12,05,6.60
2015,12,12,12,06,6.60
2015,12,12,12,07,6.60
2015,12,12,12,08,6.60
2015,12,12,12,09,6.60
2015,12,12,12,10,6.60
2015,12,12,12,11,6.50
2015,12,12,12,12,6.50
2015,12,12,12,13,6.50
2015,12,12,12,14,6.50
2015,12,12,12,15,6.50
2015,12,12,12,16,6.50
2015,12,12,12,17,6.50
2015,12,12,12,18,6.50
2015,12,12,12,19,6.50
2015,12,12,12,20,6.50
2015,12,12,12,21,6.50
2015,12,12,12,22,6.50
2015,12,12,12,23,6.40
2015,12,12,12,24,6.40
2015,12,12,12,25,6.40
2015,12,12,12,26,6.40
2015,12,12,12,27,6.40
2015,12,12,12,28,6.40
2015,12,12,12,29,6.40
2015,12,12,12,30,6.40
2015,12,12,12,31,6.40
2015,12,12,12,32,6.40
2015,12,12,12,33,6.40
2015,12,12,12,34,6.40
2015,12,12,12,35,6.40
2015,12,12,12,36,6.40
2015,12,12,12,37,6.40
2015,12,12,12,38,6.40
2015,12,12,12,39,6.40
2015,12,12,12,40,6.40
2015,12,12,12,41,6.40
2015,12,12,12,42,6.40
2015,12,12,12,43,6.40
2015,12,12,12,44,6.40
2015,12,12,12,45,6.30
2015,12,12,12,46,6.30
2015,12,12,12,47,6.30
2015,12,12,12,48,6.30
2015,12,12,12,49,6.30
2015,12,12,12,50,6.30
2015,12,12,12,51,6.30
2015,12,12,12,52,6.30
2015,12,12,12,53,6.30
2015,12,12,12,54,6.30
2015,12,12,12,55,6.30
2015,12,12,12,56,6.30
2015,12,12,12,57,6.30
2015,12,12,12,58,6.30
2015,12,12,12,59,6.20
2015,12,12,13,00,6.20
2015,12,12,13,01,6.20
2015,12,12,13,02,6.20
2015,12,12,13,03,6.20
2015,12,12,13,04,6.20
2015,12,12,13,05,6.20
2015,12,12,13,06,6.20
2015,12,12,13,07,6.20
2015,12,12,13,08,6.20
2015,12,12,13,09,6.20
2015,12,12,13,10,6.20
2015,12,12,13,11,6.20
2015,12,12,13,12,6.20
2015,12,12,13,13,6.20
2015,12,12,13,14,6.20
2015,12,12,13,15,6.20
2015,12,12,13,16,6.10
2015,12,12,13,17,6.10
2015,12,12,13,18,6.10
2015,12,12,13,19,6.10
2015,12,12,13,20,6.10
2015,12,12,13,21,6.10
2015,12,12,13,22,6.10
2015,12,12,13,23,6.20
2015,12,12,13,24,6.20
2015,12,12,13,25,6.20
2015,12,12,13,26,6.20
2015,12,12,13,27,6.20
2015,12,12,13,28,6.20
2015,12,12,13,29,6.20
2015,12,12,13,30,6.20
2015,12,12,13,31,6.20
2015,12,12,13,32,6.20
2015,12,12,13,33,6.20
2015,12,12,13,34,6.10
2015,12,12,15,41,6.80
2015,12,12,15,42,6.80
2015,12,12,15,43,6.80
2015,12,12,15,44,6.80
2015,12,12,15,45,6.80
2015,12,12,15,46,6.80
2015,12,12,15,47,6.80
2015,12,12,15,48,6.70
2015,12,12,15,49,6.80
2015,12,12,15,50,6.70
2015,12,12,15,51,6.70
2015,12,12,15,52,6.70
2015,12,12,15,53,6.70
2015,12,12,15,54,6.70
2015,12,12,15,55,6.70
2015,12,12,15,56,6.70
2015,12,12,15,57,6.70
2015,12,12,15,58,6.70
2015,12,12,15,59,6.70
2015,12,12,16,00,6.70
2015,12,12,16,01,6.70
2015,12,12,16,02,6.80
2015,12,12,16,03,6.70
2015,12,12,16,04,6.70
2015,12,12,16,05,6.70
2015,12,12,16,06,6.70
2015,12,12,16,07,6.70
2015,12,12,16,08,6.70
2015,12,12,16,09,6.70
2015,12,12,16,10,6.70
2015,12,12,16,11,6.70
2015,12,12,16,12,6.70
2015,12,12,16,13,6.70
2015,12,12,16,14,6.70
2015,12,12,16,15,6.70
2015,12,12,16,16,6.60
2015,12,12,16,17,6.60
2015,12,12,16,18,6.60
2015,12,12,16,19,6.50
2015,12,12,16,20,6.50
2015,12,12,16,21,6.40
2015,12,12,16,22,6.40
2015,12,12,16,23,6.40
2015,12,12,16,24,6.30
2015,12,12,16,25,6.30
2015,12,12,16,26,6.30
2015,12,12,16,27,6.30
2015,12,12,16,28,6.20
2015,12,12,16,29,6.20
2015,12,12,16,30,6.20
2015,12,12,16,31,6.20
2015,12,12,16,32,6.20
2015,12,12,16,33,6.10
2015,12,12,16,34,6.10
2015,12,12,16,35,6.10
2015,12,12,16,36,6.10
2015,12,12,16,37,6.10
2015,12,12,16,38,6.00
2015,12,12,16,39,6.00
2015,12,12,16,40,6.00
2015,12,12,16,41,6.00
2015,12,12,16,42,6.00
2015,12,12,16,43,5.90
2015,12,12,16,44,5.90
2015,12,12,16,45,5.90
2015,12,12,16,46,5.90
2015,12,12,16,47,5.90
2015,12,12,16,48,5.90
2015,12,12,16,49,5.90
2015,12,12,16,50,5.90
2015,12,12,16,51,5.80
2015,12,12,16,52,5.80
2015,12,12,16,53,5.80
2015,12,12,16,54,5.80
2015,12,12,16,55,5.80
2015,12,12,16,56,5.80
2015,12,12,16,57,5.80
2015,12,12,16,58,5.80
2015,12,12,16,59,5.80
2015,12,12,17,00,5.80
2015,12,12,17,01,5.80
2015,12,12,17,02,5.80
2015,12,12,17,03,5.80
2015,12,12,17,04,5.80
2015,12,12,17,05,5.80
2015,12,12,17,06,5.80
2015,12,12,17,07,5.80
2015,12,12,17,08,5.70
2015,12,12,17,09,5.80
2015,12,12,17,10,5.70
2015,12,12,17,11,5.70
2015,12,12,17,12,5.70
2015,12,12,17,13,5.70
2015,12,12,17,14,5.70
2015,12,12,17,15,5.70
2015,12,12,17,16,5.70
2015,12,12,17,17,5.70
2015,12,12,17,18,5.70
2015,12,12,17,19,5.70
2015,12,12,17,20,5.70
2015,12,12,17,21,5.70
2015,12,12,17,22,5.70
2015,12,12,17,23,5.70
2015,12,12,17,24,5.70
2015,12,12,17,25,5.70
2015,12,12,17,26,5.70
2015,12,12,17,27,5.70
2015,12,12,17,28,5.70
2015,12,12,17,29,5.70
2015,12,12,17,30,5.70
2015,12,12,17,31,5.70
2015,12,12,17,32,5.70
2015,12,12,17,33,5.70
2015,12,12,17,34,5.70
2015,12,12,17,35,5.70
2015,12,12,17,36,5.70
2015,12,12,17,37,5.70
2015,12,12,17,38,5.70
2015,12,12,17,39,5.60
2015,12,12,17,40,5.60
2015,12,12,17,41,5.60
2015,12,12,17,42,5.60
2015,12,12,17,43,5.60
2015,12,12,17,44,5.60
2015,12,12,17,45,5.60
2015,12,12,17,46,5.60
2015,12,12,17,47,5.60
2015,12,12,17,48,5.60
2015,12,12,17,49,5.60
2015,12,12,17,50,5.60
2015,12,12,17,51,5.60
2015,12,12,17,52,5.60
2015,12,12,17,53,5.60
2015,12,12,17,54,5.60
2015,12,12,17,55,5.60
2015,12,12,17,56,5.60
2015,12,12,17,57,5.60
2015,12,12,17,58,5.60
2015,12,12,17,59,5.60
2015,12,12,18,00,5.60
2015,12,12,18,01,5.60
2015,12,12,18,02,5.60
2015,12,12,18,03,5.60
2015,12,12,18,04,5.60
2015,12,12,18,05,5.60
2015,12,12,18,06,5.60
2015,12,12,18,07,5.60
2015,12,12,18,08,5.60
2015,12,12,18,09,5.60
2015,12,12,18,10,5.60
2015,12,12,18,11,5.50
2015,12,12,18,12,5.50
2015,12,12,18,13,5.50
2015,12,12,18,14,5.50
2015,12,12,18,15,5.50
2015,12,12,18,16,5.50
2015,12,12,18,17,5.50
2015,12,12,18,18,5.50
2015,12,12,18,19,5.50
2015,12,12,18,20,5.50
2015,12,12,18,21,5.50
2015,12,12,18,22,5.50
2015,12,12,18,23,5.50
2015,12,12,18,24,5.50
2015,12,12,18,25,5.50
2015,12,12,18,26,5.50
2015,12,12,18,27,5.50
2015,12,12,18,28,5.40
2015,12,12,18,29,5.40
2015,12,12,18,30,5.40
2015,12,12,18,31,5.40
2015,12,12,18,32,5.40
2015,12,12,18,33,5.40
2015,12,12,18,34,5.40
2015,12,12,18,35,5.40
2015,12,12,18,36,5.40
2015,12,12,18,37,5.40
2015,12,12,18,38,5.40
2015,12,12,18,39,5.40
2015,12,12,18,40,5.40
2015,12,12,18,41,5.40
2015,12,12,18,42,5.40
2015,12,12,18,43,5.40
2015,12,12,18,44,5.40
2015,12,12,18,45,5.30
2015,12,12,18,46,5.30
2015,12,12,18,47,5.30
2015,12,12,18,48,5.30
2015,12,12,18,49,5.30
2015,12,12,18,50,5.30
2015,12,12,18,51,5.30
2015,12,12,18,52,5.30
2015,12,12,18,53,5.30
2015,12,12,18,54,5.30
2015,12,12,18,55,5.30
2015,12,12,18,56,5.30
2015,12,12,18,57,5.30
2015,12,12,18,58,5.30
2015,12,12,18,59,5.30
2015,12,12,19,00,5.30
2015,12,12,19,01,5.30
2015,12,12,19,02,5.30
2015,12,12,19,03,5.30
2015,12,12,19,04,5.30
2015,12,12,19,05,5.30
2015,12,12,19,06,5.30
2015,12,12,19,07,5.30
2015,12,12,19,08,5.30
2015,12,12,19,09,5.30
2015,12,12,19,10,5.30
2015,12,12,19,11,5.30
2015,12,12,19,12,5.30
2015,12,12,19,13,5.30
2015,12,12,19,14,5.30
2015,12,12,19,15,5.30
2015,12,12,19,16,5.30
2015,12,12,19,17,5.40
2015,12,12,19,18,5.30
2015,12,12,19,19,5.30
2015,12,12,19,20,5.40
2015,12,12,19,21,5.40
2015,12,12,19,22,5.40
2015,12,12,19,23,5.40
2015,12,12,19,24,5.40
2015,12,12,19,25,5.40
2015,12,12,19,26,5.40
2015,12,12,19,27,5.40
2015,12,12,19,28,5.40
2015,12,12,19,29,5.40
2015,12,12,19,30,5.40
2015,12,12,19,31,5.40
2015,12,12,19,32,5.40
2015,12,12,19,33,5.40
2015,12,12,19,34,5.40
2015,12,12,19,35,5.40
2015,12,12,19,36,5.40
2015,12,12,19,37,5.40
2015,12,12,19,38,5.40
2015,12,12,19,39,5.40
2015,12,12,19,40,5.40
2015,12,12,19,41,5.40
2015,12,12,19,42,5.40
2015,12,12,19,43,5.40
2015,12,12,19,44,5.40
2015,12,12,19,45,5.40
2015,12,12,19,46,5.40
2015,12,12,19,47,5.40
2015,12,12,19,48,5.40
2015,12,12,19,49,5.40
2015,12,12,19,50,5.40
2015,12,12,19,51,5.40
2015,12,12,19,52,5.40
2015,12,12,19,53,5.40
2015,12,12,19,54,5.40
2015,12,12,19,55,5.40
2015,12,12,19,56,5.40
2015,12,12,19,57,5.40
2015,12,12,19,58,5.40
2015,12,12,19,59,5.40
2015,12,12,20,00,5.40
2015,12,12,20,01,5.40
2015,12,12,20,02,5.40
2015,12,12,20,03,5.40
2015,12,12,20,04,5.40
2015,12,12,20,05,5.40
2015,12,12,20,06,5.40
2015,12,12,20,07,5.30
2015,12,12,20,08,5.30
2015,12,12,20,09,5.30
2015,12,12,20,10,5.30
2015,12,12,20,11,5.30
2015,12,12,20,12,5.30
2015,12,12,20,13,5.30
2015,12,12,20,14,5.30
2015,12,12,20,15,5.30
2015,12,12,20,16,5.30
2015,12,12,20,17,5.30
2015,12,12,20,18,5.30
2015,12,12,20,19,5.30
2015,12,12,20,20,5.30
2015,12,12,20,21,5.30
2015,12,12,20,22,5.30
2015,12,12,20,23,5.30
2015,12,12,20,24,5.30
2015,12,12,20,25,5.30
2015,12,12,20,26,5.30
2015,12,12,20,27,5.30
2015,12,12,20,28,5.30
2015,12,12,20,29,5.30
2015,12,12,20,30,5.30
2015,12,12,20,31,5.20
2015,12,12,20,32,5.20
2015,12,12,20,33,5.20
2015,12,12,20,34,5.20
2015,12,12,20,35,5.20
2015,12,12,20,36,5.20
2015,12,12,20,37,5.20
2015,12,12,20,38,5.20
2015,12,12,20,39,5.20
2015,12,12,20,40,5.20
2015,12,12,20,41,5.20
2015,12,12,20,42,5.20
2015,12,12,20,43,5.20
2015,12,12,20,44,5.20
2015,12,12,20,45,5.20
2015,12,12,20,46,5.20
2015,12,12,20,47,5.20
2015,12,12,20,48,5.20
2015,12,12,20,49,5.20
2015,12,12,20,50,5.20
2015,12,12,20,51,5.20
2015,12,12,20,52,5.20
2015,12,12,20,53,5.20
2015,12,12,20,54,5.20
2015,12,12,20,55,5.20
2015,12,12,20,56,5.20
2015,12,12,20,57,5.20
2015,12,12,20,58,5.20
2015,12,12,20,59,5.20
2015,12,12,21,00,5.20
2015,12,12,21,01,5.20
2015,12,12,21,02,5.20
2015,12,12,21,03,5.20
2015,12,12,21,04,5.20
2015,12,12,21,05,5.20
2015,12,12,21,06,5.20
2015,12,12,21,07,5.20
2015,12,12,21,08,5.20
2015,12,12,21,09,5.20
2015,12,12,21,10,5.20
2015,12,12,21,11,5.20
2015,12,12,21,12,5.20
2015,12,12,21,13,5.20
2015,12,12,21,14,5.20
2015,12,12,21,15,5.20
2015,12,12,21,16,5.20
2015,12,12,21,17,5.20
2015,12,12,21,18,5.20
2015,12,12,21,19,5.20
2015,12,12,21,20,5.20
2015,12,12,21,21,5.20
2015,12,12,21,22,5.20
2015,12,12,21,23,5.20
2015,12,12,21,24,5.20
2015,12,12,21,25,5.20
2015,12,12,21,26,5.20
2015,12,12,21,27,5.20
2015,12,12,21,28,5.20
2015,12,12,21,29,5.20
2015,12,12,21,30,5.20
2015,12,12,21,31,5.10
2015,12,12,21,32,5.20
2015,12,12,21,33,5.10
2015,12,12,21,34,5.10
2015,12,12,21,35,5.10
2015,12,12,21,36,5.10
2015,12,12,21,37,5.10
2015,12,12,21,38,5.10
2015,12,12,21,39,5.10
2015,12,12,21,40,5.10
2015,12,12,21,41,5.10
2015,12,12,21,42,5.10
2015,12,12,21,43,5.10
2015,12,12,21,44,5.10
2015,12,12,21,45,5.10
2015,12,12,21,46,5.20
2015,12,12,21,47,5.20
2015,12,12,21,48,5.20
2015,12,12,21,49,5.20
2015,12,12,21,50,5.20
2015,12,12,21,51,5.20
2015,12,12,21,52,5.20
2015,12,12,21,53,5.20
2015,12,12,21,54,5.20
2015,12,12,21,55,5.20
2015,12,12,21,56,5.20
2015,12,12,21,57,5.20
2015,12,12,21,58,5.20
2015,12,12,21,59,5.20
2015,12,12,22,00,5.20
2015,12,12,22,01,5.20
2015,12,12,22,02,5.20
2015,12,12,22,03,5.20
2015,12,12,22,04,5.20
2015,12,12,22,05,5.20
2015,12,12,22,06,5.20
2015,12,12,22,07,5.20
2015,12,12,22,08,5.20
2015,12,12,22,09,5.20
2015,12,12,22,10,5.20
2015,12,12,22,11,5.20
2015,12,12,22,12,5.20
2015,12,12,22,13,5.20
2015,12,12,22,14,5.20
2015,12,12,22,15,5.20
2015,12,12,22,16,5.20
2015,12,12,22,17,5.20
2015,12,12,22,18,5.20
2015,12,12,22,19,5.20
2015,12,12,22,20,5.20
2015,12,12,22,21,5.20
2015,12,12,22,22,5.20
2015,12,12,22,23,5.20
2015,12,12,22,24,5.20
2015,12,12,22,25,5.20
2015,12,12,22,26,5.20
2015,12,12,22,27,5.20
2015,12,12,22,28,5.20
2015,12,12,22,29,5.20
2015,12,12,22,30,5.20
2015,12,12,22,31,5.20
2015,12,12,22,32,5.20
2015,12,12,22,33,5.20
2015,12,12,22,34,5.20
2015,12,12,22,35,5.20
2015,12,12,22,36,5.20
2015,12,12,22,37,5.20
2015,12,12,22,38,5.20
2015,12,12,22,39,5.20
2015,12,12,22,40,5.20
2015,12,12,22,41,5.20
2015,12,12,22,42,5.20
2015,12,12,22,43,5.20
2015,12,12,22,44,5.20
2015,12,12,22,45,5.20
2015,12,12,22,46,5.20
2015,12,12,22,47,5.20
2015,12,12,22,48,5.20
2015,12,12,22,49,5.20
2015,12,12,22,50,5.20
2015,12,12,22,51,5.20
2015,12,12,22,52,5.30
2015,12,12,22,53,5.30
2015,12,12,22,54,5.30
2015,12,12,22,55,5.30
2015,12,12,22,56,5.30
2015,12,12,22,57,5.30
2015,12,12,22,58,5.30
2015,12,12,22,59,5.30
2015,12,12,23,00,5.30
2015,12,12,23,01,5.30
2015,12,12,23,02,5.30
2015,12,12,23,03,5.30
2015,12,12,23,04,5.30
2015,12,12,23,05,5.30
2015,12,12,23,06,5.30
2015,12,12,23,07,5.30
2015,12,12,23,08,5.40
2015,12,12,23,09,5.40
2015,12,12,23,10,5.40
2015,12,12,23,11,5.40
2015,12,12,23,12,5.40
2015,12,12,23,13,5.40
2015,12,12,23,14,5.40
2015,12,12,23,15,5.40
2015,12,12,23,16,5.40
2015,12,12,23,17,5.40
2015,12,12,23,18,5.40
2015,12,12,23,19,5.40
2015,12,12,23,20,5.40
2015,12,12,23,21,5.40
2015,12,12,23,22,5.40
2015,12,12,23,23,5.40
2015,12,12,23,24,5.40
2015,12,12,23,25,5.40
2015,12,12,23,26,5.40
2015,12,12,23,27,5.40
2015,12,12,23,28,5.40
2015,12,12,23,29,5.40
2015,12,12,23,30,5.40
2015,12,12,23,31,5.40
2015,12,12,23,32,5.40
2015,12,12,23,33,5.40
2015,12,12,23,34,5.40
2015,12,12,23,35,5.40
2015,12,12,23,36,5.40
2015,12,12,23,37,5.40
2015,12,12,23,38,5.40
2015,12,12,23,39,5.40
2015,12,12,23,40,5.40
2015,12,12,23,41,5.40
2015,12,12,23,42,5.30
2015,12,12,23,43,5.30
2015,12,12,23,44,5.30
2015,12,12,23,45,5.30
2015,12,12,23,46,5.30
2015,12,12,23,47,5.30
2015,12,12,23,48,5.30
2015,12,12,23,49,5.30
2015,12,12,23,50,5.30
2015,12,12,23,51,5.30
2015,12,12,23,52,5.30
2015,12,12,23,53,5.30
2015,12,12,23,54,5.30
2015,12,12,23,55,5.30
2015,12,12,23,56,5.30
2015,12,12,23,57,5.30
2015,12,12,23,58,5.30
2015,12,12,23,59,5.30
